Tracking 19246 objects as of 19-Aug-2018
HD Live streaming from Space Station
objects crossing your sky now

COSMOS 1748

Track COSMOS 1748 now!
10-day predictions
COSMOS 1748 is classified as:


NORAD ID: 16758
Int'l Code: 1986-042A
Perigee: 1,460.7 km
Apogee: 1,476.4 km
Inclination: 74.0 °
Period: 115.1 minutes
Semi major axis: 7839 km
RCS: 0.6965 m2 (medium)
Launch date: June 6, 1986
Source: Commonwealth of Independent States (former USSR) (CIS)
Launch site: PLESETSK MISSILE AND SPACE COMPLEX (PKMTR)
aabbcc
Your satellite tracking list
Your tracking list is empty




NASA's NSSDC Master Catalog

Two Line Element Set (TLE):
1 16758U 86042A   18231.23867404 -.00000018 +00000-0 -13922-4 0  9998
2 16758 074.0191 141.1842 0010004 071.9805 085.4565 12.50742091470361
Source of the keplerian elements: AFSPC